Location: *
(38.9555°S, 57.3572°E)
Time: 01:45:24
(UTC+00:00)

COSMOS 2428 - Pass Details

Date: 15 July 2020
Orbit: 844 x 859 km, 70.9° (Epoch: 06 August)

Event Time Altitude Azimuth Distance (km) Brightness Sun altitude
Rises 14:24:12 0° 212° (SSW) 3,449 6.1 -14.7°
Reaches altitude 10° 14:26:51 10° 220° (SW) 2,504 5.5 -15.2°
Maximum altitude 14:32:03 36° 284° (WNW) 1,318 4.4 -16.1°
Drops below altitude 10° 14:37:11 10° 349° (N) 2,468 5.4 -17.1°
Sets 14:39:47 0° 358° (N) 3,393 6.1 -17.6°
